Terug naar catalogus

NOAA 16 DEB

ActiefSSO
NORAD 41058·DEBRIS·🇺🇸 United States

Gelanceerd Sep 21, 2000 vanaf Vandenberg Space Force Base

Loading…

Volgende Passages (komende 24 uur)

TLE

VersSource: Space-Track

Epoch: Sep 14, 2026, 09:24 UTC

1 41058U 00055R   26257.39191403  .00000612  00000-0  34923-3 0  9993
2 41058  98.5988 251.1948 0021731 250.9200 108.9620 14.13116696555536

Volg NOAA 16 DEB in realtime met AllMySat

Download on the App Store